Stanley, ND

7:12 PM CDT on April 27, 2017 (GMT -0500)
Stanley

Weather History for K08D - May, 2014

Change the Weather History Date:

Wednesday, May 7, 2014

  Actual Average (KMIB) Record (KMIB)
Temperature  
Mean Temperature 38 °F -  
Max Temperature 44 °F 59 °F 76 °F (2013)
Min Temperature 32 °F 37 °F 28 °F (2002)
Degree Days  
Heating Degree Days 27    
Moisture  
Dew Point 36 °F    
Average Humidity 89    
Maximum Humidity 100    
Minimum Humidity 49    
Precipitation  
Precipitation 0.63 in - - ()
Sea Level Pressure  
Sea Level Pressure 29.87 in    
Wind  
Wind Speed 13 mph (North)    
Max Wind Speed 25 mph    
Max Gust Speed 33 mph    
Visibility 8 miles    
Events Rain , Snow    
Averages and records for this station are not official NWS values.
T = Trace of Precipitation, MM = Missing Value Source: NWS Daily Summary

Daily Weather History Graph

Daily Weather History Graph

Search for Another Location

Airport or City:

Trip Planner

Search our weather history database for the weather conditions in past years. The results will help you decide how hot, cold, wet, or windy it might be!

Date:

Astronomy

May. 07, 2014 Rise Set
Actual Time 6:21 AM CDT 9:12 PM CDT
Civil Twilight 5:45 AM CDT 9:48 PM CDT
Nautical Twilight 4:59 AM CDT 10:34 PM CDT
Astronomical Twilight 4:03 AM CDT 11:30 PM CDT
Moon 1:46 PM CDT (5/7) 2:55 AM CDT (5/7)
Length of Visible Light 16h 03m
Length of Day
14h 51m
First Quarter, 55% of the Moon is Illuminated
May 7
First Quarter
May 14
Full
May 21
Last Quarter
May 28
New
Jun 5
First Quarter

Hourly Weather History & Observations

Time (CDT) Temp. Windchill Dew Point Humidity Pressure Visibility Wind Dir Wind Speed Gust Speed Precip Events Conditions
12:15 AM 44.6 °F 41.4 °F 44.6 °F 100% 29.81 in 10.0 mi North 5.8 mph - N/A   Overcast
12:35 AM 44.6 °F 41.4 °F 44.6 °F 100% 29.80 in 10.0 mi NNW 5.8 mph - N/A   Overcast
12:55 AM 44.6 °F 41.4 °F 44.6 °F 100% 29.80 in 10.0 mi NNW 5.8 mph - N/A   Overcast
1:15 AM 44.6 °F 41.4 °F 44.6 °F 100% 29.80 in 10.0 mi NNW 5.8 mph - N/A   Overcast
1:35 AM 44.6 °F 40.2 °F 44.6 °F 100% 29.80 in 10.0 mi NNW 8.1 mph - N/A   Overcast
1:55 AM 44.6 °F 40.7 °F 44.6 °F 100% 29.80 in 10.0 mi North 6.9 mph - N/A   Overcast
2:15 AM 44.6 °F 40.2 °F 44.6 °F 100% 29.80 in 10.0 mi NNW 8.1 mph - N/A   Overcast
2:35 AM 44.6 °F 40.2 °F 44.6 °F 100% 29.80 in 10.0 mi NNW 8.1 mph - N/A   Overcast
2:55 AM 42.8 °F 35.8 °F 42.8 °F 100% 29.79 in 5.0 mi NNW 13.8 mph 20.7 mph N/A   Overcast
3:15 AM 41.0 °F 32.5 °F 41.0 °F 100% 29.79 in 3.0 mi NNW 17.3 mph 23.0 mph N/A   Overcast
3:35 AM 41.0 °F 32.8 °F 41.0 °F 100% 29.80 in 2.5 mi NNW 16.1 mph 19.6 mph N/A   Overcast
3:55 AM 41.0 °F 32.5 °F 41.0 °F 100% 29.80 in 2.5 mi NNW 17.3 mph 24.2 mph N/A   Overcast
4:15 AM 39.2 °F 29.6 °F 39.2 °F 100% 29.81 in 2.0 mi NNW 19.6 mph 25.3 mph N/A   Overcast
4:35 AM 39.2 °F 29.8 °F 39.2 °F 100% 29.81 in 1.8 mi North 18.4 mph - N/A Rain Light Rain
4:55 AM 39.2 °F 29.8 °F 39.2 °F 100% 29.81 in 5.0 mi North 18.4 mph 26.5 mph N/A   Overcast
5:15 AM 39.2 °F 28.7 °F 39.2 °F 100% 29.81 in 10.0 mi North 23.0 mph 28.8 mph N/A   Overcast
5:35 AM 39.2 °F 28.7 °F 39.2 °F 100% 29.81 in 10.0 mi North 23.0 mph 29.9 mph N/A   Overcast
5:55 AM 39.2 °F 28.3 °F 39.2 °F 100% 29.82 in 10.0 mi North 25.3 mph 32.2 mph N/A   Overcast
6:15 AM 39.2 °F 29.0 °F 39.2 °F 100% 29.82 in 10.0 mi North 21.9 mph 33.4 mph N/A   Overcast
6:35 AM 37.4 °F 26.4 °F 37.4 °F 100% 29.83 in 10.0 mi North 23.0 mph 32.2 mph N/A   Overcast
6:55 AM 37.4 °F 26.1 °F 37.4 °F 100% 29.83 in 10.0 mi North 24.2 mph - N/A   Mostly Cloudy
7:15 AM 37.4 °F 27.8 °F 37.4 °F 100% 29.83 in 10.0 mi North 17.3 mph 28.8 mph N/A   Overcast
7:35 AM 37.4 °F 26.4 °F 37.4 °F 100% 29.83 in 10.0 mi North 23.0 mph 28.8 mph N/A   Overcast
7:55 AM 37.4 °F 26.9 °F 37.4 °F 100% 29.84 in 10.0 mi North 20.7 mph 26.5 mph N/A   Overcast
8:15 AM 37.4 °F 26.9 °F 37.4 °F 100% 29.84 in 5.0 mi North 20.7 mph 25.3 mph N/A   Overcast
8:35 AM 37.4 °F 26.4 °F 37.4 °F 100% 29.85 in 3.0 mi North 23.0 mph 29.9 mph N/A   Overcast
8:55 AM 37.4 °F 26.9 °F 37.4 °F 100% 29.85 in 2.0 mi North 20.7 mph 28.8 mph N/A   Overcast
9:15 AM 37.4 °F 26.6 °F 37.4 °F 100% 29.85 in 4.0 mi North 21.9 mph - N/A   Mostly Cloudy
9:35 AM 37.4 °F 26.9 °F 37.4 °F 100% 29.86 in 2.5 mi North 20.7 mph 29.9 mph 0.03 in   Mostly Cloudy
9:55 AM 37.4 °F 27.2 °F 37.4 °F 100% 29.87 in 3.0 mi North 19.6 mph 27.6 mph 0.11 in   Mostly Cloudy
10:15 AM 37.4 °F 28.5 °F 37.4 °F 100% 29.87 in 3.0 mi North 15.0 mph - 0.04 in   Mostly Cloudy
10:35 AM 35.6 °F 24.5 °F 35.6 °F 100% 29.88 in 7.0 mi North 20.7 mph 27.6 mph 0.14 in   Mostly Cloudy
10:55 AM 35.6 °F 24.8 °F 35.6 °F 100% 29.88 in 3.0 mi North 19.6 mph 28.8 mph 0.22 in Snow Light Snow
11:15 AM 33.8 °F 22.8 °F 33.8 °F 100% 29.88 in 2.0 mi North 18.4 mph 25.3 mph 0.03 in Snow Light Snow
11:35 AM 32.0 °F 22.1 °F 32.0 °F 100% 29.89 in 5.0 mi North 13.8 mph - 0.08 in Snow Light Snow
11:55 AM 33.8 °F 23.5 °F 33.8 °F 100% 29.89 in 5.0 mi North 16.1 mph - 0.11 in Snow Light Snow
12:15 PM 35.6 °F 24.8 °F 35.6 °F 100% 29.89 in 10.0 mi North 19.6 mph - N/A Snow Light Snow
12:35 PM 35.6 °F 23.7 °F 35.6 °F 100% 29.90 in 10.0 mi North 24.2 mph 32.2 mph 0.03 in Snow Light Snow
12:55 PM 37.4 °F 27.2 °F 37.4 °F 100% 29.90 in 10.0 mi North 19.6 mph 25.3 mph 0.06 in Snow Light Snow
1:15 PM 37.4 °F 26.9 °F 37.4 °F 100% 29.91 in 10.0 mi North 20.7 mph 24.2 mph N/A Snow Light Snow
1:35 PM 35.6 °F 24.8 °F 35.6 °F 100% 29.91 in 10.0 mi North 19.6 mph - 0.02 in Snow Light Snow
1:55 PM 35.6 °F 25.5 °F 35.6 °F 100% 29.91 in 3.0 mi North 17.3 mph 21.9 mph 0.09 in Snow Light Snow
2:15 PM 35.6 °F 24.8 °F 35.6 °F 100% 29.92 in 9.0 mi North 19.6 mph 24.2 mph 0.02 in   Partly Cloudy
2:35 PM 35.6 °F 24.2 °F 35.6 °F 100% 29.92 in 10.0 mi North 21.9 mph 28.8 mph 0.03 in Snow Light Snow
2:55 PM 35.6 °F 24.0 °F 35.6 °F 100% 29.92 in 10.0 mi North 23.0 mph - 0.04 in Snow Light Snow
3:15 PM 37.4 °F 27.5 °F 37.4 °F 100% 29.92 in 10.0 mi North 18.4 mph 24.2 mph N/A   Clear
3:35 PM 37.4 °F 28.5 °F 37.4 °F 100% 29.92 in 10.0 mi North 15.0 mph - N/A   Scattered Clouds
3:55 PM 39.2 °F 30.2 °F 35.6 °F 87% 29.91 in 10.0 mi North 17.3 mph 24.2 mph N/A   Mostly Cloudy
4:15 PM 39.2 °F 30.8 °F 35.6 °F 87% 29.91 in 10.0 mi North 15.0 mph - N/A   Partly Cloudy
4:35 PM 41.0 °F 32.8 °F 35.6 °F 81% 29.90 in 10.0 mi NNE 16.1 mph 20.7 mph N/A   Clear
4:55 PM 42.8 °F 35.1 °F 33.8 °F 70% 29.91 in 10.0 mi North 16.1 mph 20.7 mph N/A   Mostly Cloudy
5:15 PM 42.8 °F 36.6 °F 33.8 °F 70% 29.90 in 10.0 mi NNE 11.5 mph 20.7 mph N/A   Overcast
5:35 PM 44.6 °F 38.1 °F 32.0 °F 61% 29.90 in 10.0 mi NNE 13.8 mph 20.7 mph N/A   Overcast
5:55 PM 44.6 °F 37.8 °F 32.0 °F 61% 29.91 in 10.0 mi NNE 15.0 mph - N/A   Overcast
6:15 PM 44.6 °F 37.4 °F 26.6 °F 49% 29.91 in 10.0 mi NNE 16.1 mph - N/A   Overcast
6:35 PM 44.6 °F 38.1 °F 28.4 °F 53% 29.91 in 10.0 mi North 13.8 mph - N/A   Overcast
6:55 PM 44.6 °F 38.1 °F 28.4 °F 53% 29.92 in 10.0 mi North 13.8 mph - N/A   Overcast
7:15 PM 44.6 °F 39.2 °F 28.4 °F 53% 29.91 in 10.0 mi NNE 10.4 mph - N/A   Overcast
7:35 PM 44.6 °F 39.2 °F 26.6 °F 49% 29.91 in 10.0 mi NNE 10.4 mph 16.1 mph N/A   Overcast
7:55 PM 44.6 °F 40.7 °F 26.6 °F 49% 29.92 in 10.0 mi NNE 6.9 mph - N/A   Overcast
8:15 PM 42.8 °F 38.6 °F 26.6 °F 53% 29.93 in 10.0 mi NNE 6.9 mph - N/A   Overcast
8:35 PM 42.8 °F 40.1 °F 28.4 °F 57% 29.93 in 10.0 mi NE 4.6 mph - N/A   Overcast
8:55 PM 42.8 °F 41.1 °F 30.2 °F 61% 29.93 in 10.0 mi NE 3.5 mph - N/A   Overcast
9:15 PM 41.0 °F 39.0 °F 30.2 °F 65% 29.94 in 10.0 mi NE 3.5 mph - N/A   Overcast
9:35 PM 41.0 °F - 32.0 °F 70% 29.95 in 10.0 mi Calm Calm - N/A   Overcast
9:55 PM 37.4 °F 33.8 °F 33.8 °F 87% 29.94 in 10.0 mi North 4.6 mph - N/A   Overcast
10:15 PM 39.2 °F - 32.0 °F 75% 29.95 in 10.0 mi Calm Calm - N/A   Overcast
10:35 PM 37.4 °F 34.9 °F 32.0 °F 81% 29.95 in 10.0 mi NNE 3.5 mph - N/A   Overcast
10:55 PM 37.4 °F - 32.0 °F 81% 29.95 in 10.0 mi Calm Calm - N/A   Overcast
11:15 PM 35.6 °F - 32.0 °F 87% 29.95 in 10.0 mi Calm Calm - N/A   Overcast
11:55 PM 32.0 °F 28.7 °F 32.0 °F 100% 29.96 in 10.0 mi NNW 3.5 mph - N/A   Mostly Cloudy